Overview Statistics Trail Chart Weather Telemetry Raw packets
 

This is the latest recevied weather packets stored in our database for station/object JF7BTK-10. If no packets are shown the sender has not sent any weather packets the latest 10 day(s).

<< 16 17 18 19 20 21 22 >>
Time Temp. Humidity Pressure Rain* Wind** Luminosity Snow
1788506775 22.78° C 69% 1007.3 hPa 0 mm - - -
1788506450 23.33° C 70% 1007.5 hPa 0 mm - - -
1788506150 22.78° C 70% 1007.5 hPa 0 mm - - -
1788505986 22.78° C 68% 1007.5 hPa 0 mm - - -
1788505250 23.89° C 64% 1007.3 hPa 0 mm - - -
1788505088 23.89° C 64% 1007.4 hPa 0 mm - - -
1788504951 23.89° C 64% 1007.2 hPa 0 mm - - -
1788504651 23.89° C 64% 1007.3 hPa 0 mm - - -
1788504350 23.89° C 64% 1007.1 hPa 0 mm - - -
1788504186 23.89° C 64% 1007.2 hPa 0 mm - - -
1788503750 23.89° C 65% 1007 hPa 0 mm - - -
1788503287 23.89° C 63% 1006.9 hPa 0 mm - - -
1788502851 23.89° C 63% 1006.9 hPa 0 mm - - -
1788502387 23.89° C 69% 1006.9 hPa 0 mm - - -
1788502251 23.33° C 68% 1006.8 hPa 0 mm - - -
1788501951 23.33° C 66% 1006.8 hPa 0 mm - - -
1788501652 24.44° C 63% 1007.1 hPa 0 mm - - -
1788501487 25° C 63% 1007 hPa 0 mm - - -
1788501051 25° C 62% 1007.2 hPa 0 mm - - -
1788500751 25° C 62% 1006.9 hPa 0 mm - - -
1788500587 25° C 62% 1006.7 hPa 0 mm - - -
1788500450 25° C 62% 1006.9 hPa 0 mm - - -
1788500152 24.44° C 64% 1006.7 hPa 0 mm - - -
1788499688 23.89° C 64% 1006.6 hPa 0 mm - - -
1788499251 24.44° C 62% 1006.7 hPa 0 mm - - -

* Rain latest hour (hover to see other rain measurements)
** Current wind speed in m/s (hover to see current wind gust speed)